{"data":{"norad_id":49201,"intl_designator":"2021-083R","name":"ONEWEB-0335","alt_names":[],"object_type":"PAYLOAD","status":"ACTIVE","operator":null,"country":"UK","launch_date":"2021-09-14","launch_site_code":"TYMSC","launch_vehicle":null,"mission":null,"orbit_class":"UNKNOWN","rcs_meters":null,"size_class":null,"mass_kg":null,"dimensions":null,"purposes":["comms"],"wikipedia_slug":null,"has_3d_model":false,"image_url":null,"decayed_at":null,"tle_current":{"epoch":"2026-05-25T01:16:42.940128Z","epoch_age_seconds":69752,"freshness":"FRESH","line1":"1 49201U 21083R   26145.05327477 -.00000163  00000+0 -48097-3 0  9995","line2":"2 49201  87.8942 324.8414 0001948  94.2653 265.8698 13.13468586227889","mean_motion":13.13468586,"eccentricity":0.0001948,"inclination_deg":87.8942,"raan_deg":324.8414,"arg_perigee_deg":94.2653,"mean_anomaly_deg":265.8698,"bstar":-0.00048097,"rev_number":22788,"period_min":109.63337953786,"perigee_km":1208.2927212322,"apogee_km":1211.2489701289,"semimajor_km":7587.9078456806,"source":"CELESTRAK","updated_at":"2026-05-25T13:38:22.492106Z"}}}